Simultaneous Nadir Overpasses (SNOs) Predictions

Prediction of SNOs between AQUA and GOES-15 Satellite Orbit:

Table of predicted SNOs for the next 14.0 days since TLE Epoch: 6/3/2016
Index Date Time (AQUA) AQUA Lat,Lon GOES-15 Lat,Lon Distance(km) Time Diff (sec)
1 06/04/2016 10:31:58 -0.18,-134.14 -0.00,-135.06 104.61 80
2 06/04/2016 22:53:22 -0.92,-139.33 0.02,-135.06 486.33 80
3 06/06/2016 10:19:47 -0.87,-131.20 -0.00,-135.13 448.31 80
4 06/06/2016 22:41:11 -0.23,-136.39 0.02,-135.13 142.74 80
5 06/08/2016 22:28:59 0.40,-133.43 0.01,-135.19 200.67 80
6 06/09/2016 10:50:14 0.72,-138.58 -0.03,-135.23 381.98 80
7 06/11/2016 10:38:02 0.07,-135.63 -0.02,-135.29 38.87 80
8 06/13/2016 10:25:50 -0.57,-132.67 -0.02,-135.35 304.06 80
9 06/13/2016 22:47:14 -0.52,-137.87 0.03,-135.35 287.27 80
10 06/15/2016 22:35:02 0.13,-134.91 0.04,-135.40 54.92 80




NCC Satellite Simultaneous Nadir Overpasses (SNOs) Prediction Service
